This is the latest recevied weather packets stored in our database for station/object KK4WXG. If no packets are shown the sender has not sent any weather packets the latest 10 day(s).
| Time | Temp. | Humidity | Pressure | Rain* | Wind** | Luminosity | Snow |
|---|---|---|---|---|---|---|---|
| 1777421016 | 15.56° C | 79% | 1015.4 hPa | 0 mm | - | 2 W/m² | - |
| 1777420712 | 15.56° C | 78% | 1015.3 hPa | 0 mm | - | 3 W/m² | - |
| 1777420409 | 15.56° C | 78% | 1015.4 hPa | 0 mm | - | 6 W/m² | - |
| 1777420105 | 15.56° C | 77% | 1015.7 hPa | 0 mm | - | 11 W/m² | - |
| 1777419801 | 15.56° C | 77% | 1015.7 hPa | 0 mm | - | 15 W/m² | - |
| 1777419499 | 15.56° C | 77% | 1015.7 hPa | 0 mm | - | 20 W/m² | - |
| 1777419198 | 16.11° C | 76% | 1016 hPa | 0 mm | - | 27 W/m² | - |
| 1777418894 | 15.56° C | 77% | 1016 hPa | 0 mm | - | 39 W/m² | - |
| 1777418590 | 16.11° C | 76% | 1016 hPa | 0 mm | - | 42 W/m² | - |
| 1777418286 | 16.11° C | 75% | 1016.1 hPa | 0 mm | - | 49 W/m² | - |
| 1777417981 | 16.67° C | 75% | 1016 hPa | 0 mm | - | 80 W/m² | - |
| 1777417678 | 16.11° C | 76% | 1016.1 hPa | 0 mm | - | 99 W/m² | - |
| 1777417373 | 15.56° C | 76% | 1016.2 hPa | 0 mm | - | 47 W/m² | - |
| 1777417070 | 15.56° C | 76% | 1016.2 hPa | 0 mm | - | 49 W/m² | - |
| 1777416766 | 16.11° C | 76% | 1016.2 hPa | 0 mm | - | 58 W/m² | - |
| 1777416461 | 16.11° C | 76% | 1016 hPa | 0 mm | - | 53 W/m² | - |
| 1777416157 | 16.11° C | 74% | 1016.1 hPa | 0 mm | - | 79 W/m² | - |
| 1777415852 | 16.67° C | 74% | 1016.3 hPa | 0 mm | - | 124 W/m² | - |
| 1777415547 | 16.11° C | 75% | 1016.2 hPa | 0 mm | - | 169 W/m² | - |
| 1777415244 | 16.11° C | 76% | 1016.4 hPa | 0 mm | - | 59 W/m² | - |
| 1777414939 | 16.11° C | 74% | 1016.4 hPa | 0 mm | - | 88 W/m² | - |
| 1777414638 | 16.11° C | 74% | 1015.8 hPa | 0 mm | - | 112 W/m² | - |
| 1777414334 | 16.11° C | 74% | 1016.1 hPa | 0 mm | - | 142 W/m² | - |
| 1777414029 | 16.11° C | 74% | 1016.1 hPa | 0 mm | - | 141 W/m² | - |
| 1777413729 | 16.11° C | 74% | 1016.1 hPa | 0 mm | - | 149 W/m² | - |
* Rain latest hour (hover to see other rain measurements)
** Current wind speed in m/s (hover to see current wind gust speed)